{"data":{"norad_id":63377,"epoch":"2026-09-20T05:13:36.392448Z","epoch_age_seconds":183202,"freshness":"STALE","line1":"1 63377U 25063Q   26263.21778232  .00017971  00000+0  54174-3 0  9991","line2":"2 63377  53.1578 226.6969 0001458  73.7336 286.3827 15.34399516 84570","mean_motion":15.34399516,"eccentricity":0.0001458,"inclination_deg":53.1578,"raan_deg":226.6969,"arg_perigee_deg":73.7336,"mean_anomaly_deg":286.3827,"bstar":0.00054174,"rev_number":8457,"period_min":93.847787684,"perigee_km":461.70728404072,"apogee_km":463.70207347425,"semimajor_km":6840.8416787575,"source":"CELESTRAK","updated_at":"2026-09-21T09:00:34.974965Z"}}